Location: Haliburton Scout Reserve
(45.0900°N, 78.3200°W)
Time: 19:22:05
(UTC-05:00)

Courier 1B - Pass Details

Date: 08 December 2023
Orbit: 962 x 1209 km, 28.3° (Epoch: 23 February)

Event Time Altitude Azimuth Distance (km) Brightness Sun altitude
Rises 08:40:11 0° 227° (SW) 3,861 10.6 7.7°
Reaches altitude 10° 08:44:06 10° 207° (SSW) 2,854 10.2 8.2°
Maximum altitude 08:48:10 16° 171° (S) 2,361 10.6 8.7°
Drops below altitude 10° 08:52:07 10° 134° (SE) 2,760 14.2 9.2°
Sets 08:55:48 0° 114° (ESE) 3,676 12.0 9.7°
